Wallace, Michigan
Current Conditions -  °F | °C
As of 3:35 AM on Friday 19 Dec 2014 (Local Time) from KMNM Reporting Station
Clear Clear  
Wind Chill: 16°   Ceiling: Unl
Heat Index: 16°   Visibility: 10mi
Dew Point: 12°   Wind: 3mph
Humidity: 86%   Direction: 310°NW
Pressure: 30.27"   Gusts: NA
Location:  45.32°N, 87.6°W
Report Text: KMNM 190935Z AUTO 31003KT 10SM CLR M09/M11 A3027 RMK AO1
Loading
Personal Weather Stations






























Interactive Weather Map New forecast layout! Learn more

10-Day Weather Forecast

Advertisements
Track Severe Weather on mobile